Location: Anglesey
(53.1800°N, 4.2200°W)
Time: 20:56:35
(UTC+00:00)

N. Korean satellite - Pass Details

Date: 15 October 2017
Orbit: 461 x 513 km, 97.2° (Epoch: 10 December)

Event Time Altitude Azimuth Distance (km) Brightness Sun altitude
Rises 19:21:33 0° 174° (S) 2,536 10.2 -9.9°
Reaches altitude 10° 19:23:38 10° 179° (S) 1,652 9.3 -10.2°
Maximum altitude 19:27:08 58° 259° (W) 561 7.2 -10.7°
Drops below altitude 10° 19:30:37 10° 339° (NNW) 1,642 9.5 -11.2°
Sets 19:32:41 0° 344° (NNW) 2,518 10.4 -11.5°
